[[{"header":{"parameterUnit":"m.s-1","parameterCategory":1,"la1":30.2992,"la2":30.254,"lo1":-89.0895,"lo2":-89.0443,"dy":0.0025,"dx":0.0025,"nx":19,"ny":19,"refTime":"2026-04-15T03:00:00:Z","depth":0,"parameterNumber":2,"parameterNumberName":"U-component_of_WINDS"},"data":[0,0,0,-1.0641,-1.064,-1.057,-1.057,-1.0497,-1.0496,0,0,0,0,0,0,0,0,0,0,0,-1.0672,-1.0671,-1.0641,-1.064,-1.057,-1.057,-1.0497,-1.0496,0,0,0,0,0,0,0,0,0,0,0,-1.0672,-1.0671,-1.0671,-1.064,-1.057,-1.057,-1.0497,-1.0544,0,0,0,0,0,0,0,0,0,0,-1.0609,-1.0646,-1.0672,-1.0671,-1.0639,-1.057,-1.057,-1.0546,-1.0541,-1.0535,0,-1.0533,0,-1.0514,-1.0492,-1.0492,0,0,0,-1.0632,-1.0651,-1.0623,-1.0671,-1.0639,-1.0571,-1.0599,-1.0543,-1.0537,-1.0529,-1.0532,-1.0529,-1.0512,-1.0492,-1.0492,-1.0485,-1.0485,0,0,-1.0636,-1.0664,-1.0627,-1.062,-1.0632,-1.0602,-1.0597,-1.0539,-1.0544,-1.0531,-1.0527,-1.0511,-1.0492,-1.0491,-1.0485,-1.0485,0,0,0,-1.0652,-1.0667,-1.0641,-1.0623,-1.061,-1.06,-1.0595,-1.0547,-1.0536,-1.0526,-1.051,-1.0491,-1.0491,-1.0484,-1.0485,-1.0528,0,0,0,-1.0654,-1.0677,-1.0643,-1.0659,-1.0611,-1.0577,-1.0604,-1.054,-1.0532,-1.0511,-1.0491,-1.049,-1.0484,-1.0485,-1.0526,-1.0544,0,0,0,-1.0673,-1.0679,-1.0672,-1.0661,-1.0632,-1.0578,-1.0563,-1.0537,-1.0523,-1.0492,-1.049,-1.0484,-1.0484,-1.0524,-1.0541,-1.0551,0,0,0,-1.0701,-1.0711,-1.0673,-1.0679,-1.0633,-1.0605,-1.0563,-1.0541,-1.0519,-1.0491,-1.0484,-1.0485,-1.0524,-1.0539,-1.0549,-1.0565,-1.0574,0,0,-1.0729,-1.0715,-1.0716,-1.0681,-1.0667,-1.0613,-1.0606,-1.0559,-1.053,-1.0502,-1.0501,-1.0527,-1.0541,-1.055,-1.0614,-1.0621,0,0,0,-1.0735,-1.0736,-1.0727,-1.0708,-1.0673,-1.0644,-1.0596,-1.0579,-1.0553,-1.0521,-1.0532,-1.0539,-1.0544,-1.055,-1.0556,-1.0559,-1.0489,-1.0489,-1.0489,-1.0816,-1.0779,-1.0779,-1.0734,-1.0716,-1.0666,-1.0648,-1.0617,-1.0584,-1.0587,-1.0579,-1.0622,-1.063,-1.0634,-1.0637,-1.0584,-1.0584,-1.0584,-1.0584,-1.0855,-1.0851,-1.0808,-1.0793,-1.0754,-1.074,-1.0693,-1.067,-1.0652,-1.0625,-1.0627,-1.0601,-1.0643,-1.0644,-1.0587,-1.0586,-1.0586,-1.0586,-1.0586,-1.0904,-1.0896,-1.0875,-1.0845,-1.0825,-1.0779,-1.0763,-1.0728,-1.0695,-1.0697,-1.0684,-1.0683,-1.0678,-1.0693,-1.0693,-1.0694,-1.0694,-1.0694,-1.0694,-1.0964,-1.0939,-1.093,-1.0895,-1.0878,-1.0852,-1.0803,-1.0786,-1.0758,-1.0733,-1.0733,-1.0701,-1.0654,-1.0644,-1.0696,-1.0696,-1.0695,-1.0695,-1.0695,-1.1018,-1.1,-1.0987,-1.0971,-1.0926,-1.091,-1.0865,-1.0833,-1.0813,-1.0807,-1.0774,-1.0746,-1.0729,-1.0724,-1.0715,-1.0782,-1.0782,-1.0782,-1.0782,-1.106,-1.1048,-1.1027,-1.1003,-1.0976,-1.0934,-1.0921,-1.0883,-1.0841,-1.0827,-1.0812,-1.0797,-1.0793,-1.0778,-1.0772,-1.0763,-1.0841,-1.0841,-1.0841,-1.1092,-1.1076,-1.1071,-1.103,-1.0993,-1.0962,-1.0948,-1.0923,-1.0871,-1.0843,-1.0815,-1.0813,-1.0788,-1.0782,-1.0753,-1.0744,-1.0727,0,0]},{"header":{"parameterUnit":"m.s-1","parameterCategory":1,"la1":30.2992,"la2":30.254,"lo1":-89.0895,"lo2":-89.0443,"dy":0.0025,"dx":0.0025,"nx":19,"ny":19,"refTime":"2026-04-15T03:00:00:Z","depth":0,"parameterNumber":3,"parameterNumberName":"V-component_of_WINDS"},"data":[0,0,0,3.7503,3.7506,3.7618,3.7618,3.7752,3.7753,0,0,0,0,0,0,0,0,0,0,0,3.7466,3.7467,3.7503,3.7506,3.7618,3.7618,3.7752,3.7753,0,0,0,0,0,0,0,0,0,0,0,3.7466,3.7467,3.7468,3.7506,3.7617,3.7618,3.7751,3.767,0,0,0,0,0,0,0,0,0,0,3.7563,3.7524,3.7466,3.7468,3.7507,3.7617,3.7618,3.7666,3.7675,3.7698,0,3.7718,0,3.7738,3.7761,3.7762,0,0,0,3.7508,3.7517,3.7551,3.7468,3.7508,3.7617,3.7568,3.7671,3.7681,3.7709,3.772,3.7725,3.774,3.7762,3.7763,3.7892,3.7892,0,0,3.7502,3.7483,3.7544,3.7558,3.7542,3.7564,3.7571,3.7677,3.7687,3.7721,3.7729,3.7742,3.7763,3.7764,3.7892,3.7892,0,0,0,3.7483,3.7479,3.7511,3.7552,3.7573,3.7567,3.7576,3.7682,3.7694,3.773,3.7744,3.7764,3.7765,3.7891,3.7892,3.79,0,0,0,3.7479,3.7468,3.7508,3.7497,3.7571,3.7629,3.7578,3.7687,3.77,3.7743,3.7764,3.7767,3.7891,3.7891,3.7898,3.7906,0,0,0,3.746,3.7465,3.748,3.7496,3.7544,3.7628,3.7646,3.769,3.7708,3.7762,3.7767,3.789,3.7891,3.7897,3.7904,3.7936,0,0,0,3.7433,3.7483,3.748,3.7541,3.7543,3.7632,3.7646,3.7713,3.776,3.7765,3.7891,3.7892,3.7897,3.7903,3.7935,3.7961,3.797,0,0,3.7485,3.7488,3.7526,3.7527,3.7613,3.7617,3.7704,3.7763,3.7784,3.7854,3.7858,3.7899,3.7904,3.7936,3.8024,3.8031,0,0,0,3.7536,3.7562,3.7589,3.7635,3.7684,3.7727,3.7776,3.7798,3.786,3.7817,3.7919,3.7923,3.7942,3.7955,3.7961,3.798,3.7897,3.7897,3.7897,3.758,3.7608,3.7672,3.7714,3.7758,3.781,3.7848,3.7887,3.7898,3.7922,3.7944,3.7994,3.8009,3.8013,3.8032,3.7959,3.7959,3.7959,3.7959,3.766,3.7703,3.7721,3.779,3.7819,3.7876,3.7929,3.7936,3.7993,3.7979,3.7998,3.7981,3.802,3.8038,3.796,3.7959,3.7959,3.7959,3.7959,3.7693,3.7719,3.7748,3.7819,3.7871,3.791,3.7966,3.7989,3.801,3.8028,3.8054,3.8054,3.8058,3.8039,3.8039,3.8039,3.804,3.804,3.804,3.7716,3.7749,3.7794,3.7853,3.7887,3.7935,3.7989,3.8023,3.8066,3.8078,3.8078,3.8088,3.8019,3.8002,3.8043,3.8042,3.8042,3.8042,3.8041,3.7788,3.7777,3.7847,3.7881,3.7953,3.8004,3.8034,3.8101,3.8132,3.8159,3.8166,3.8111,3.8115,3.811,3.8096,3.8159,3.8159,3.8159,3.8159,3.7817,3.7822,3.7901,3.7955,3.8011,3.8046,3.8124,3.8168,3.821,3.8231,3.8225,3.8208,3.8202,3.821,3.8203,3.8191,3.8276,3.8276,3.8276,3.7864,3.7876,3.7939,3.7983,3.8042,3.8092,3.8167,3.8228,3.8273,3.8282,3.8248,3.8243,3.8216,3.8206,3.8213,3.8202,3.8179,0,0]}]]